Current weather by "City, St" or "zip code"  
 

Current Conditions: Peoria - General Downing-Peoria International Airport, IL

Overcast


51.0 F

Last Updated on Oct 21 2021, 10:54 am CDT
Humidity: 66%
Wind Speed: W 15.0 G 25.3 mph
Barometer 29.99 in
Dewpoint: 39.9 F
Visibility: 10.00 mi
Precip: --
Heat Index: NA
Wind Chill: 46 F
Current conditions at:

Peoria - General Downing-Peoria International Airport, IL (KPIA)

Lat: 40.6675 Lon: 89.68389

Local Radar Image active severe weather and emergency alerts image image weather storm and storm spotter reports image weather observation monitoring service image
Local
Radar
Active
Alerts
Storm Reports Obs
Monitoring

Sign-up For Email & Text Message Weather Alert Notification Services



Advertise Here

Observation History for Peoria - General Downing-Peoria International Airport, IL


Time Wind
(mph)
Vis
(mi)
Weather Precip (in) Temperature (F) Relative
Humidity
Wind
Chill
(F)
Heat
Index
(F)
Pressure
Air Dwpt altimeter
(in)
sea level
(mb)
Rmks
10:54 am CDT W 15.0 G 25.3 10.00 Overcast -- 51.0 39.9 66% 46 NA 29.99 1015.4
9:54 am CDT W 12.7 G 23.0 10.00 Overcast -- 50.0 39.0 66% 45 NA 29.97 1014.8
8:54 am CDT W 15.0 G 24.2 10.00 Overcast -- 49.0 39.0 69% 43 NA 29.96 1014.4
7:54 am CDT W 12.7 G 24.2 10.00 Overcast -- 50.0 39.9 68% 45 NA 29.94 1013.6
6:54 am CDT W 9.2 10.00 Overcast -- 52.0 44.1 75% 49 NA 29.92 1012.8
5:54 am CDT W 9.2 10.00 Overcast -- 52.0 44.1 75% 49 NA 29.91 1012.7
4:54 am CDT W 9.2 10.00 Overcast -- 52.0 44.1 75% 49 NA 29.91 1012.5
3:54 am CDT SW 9.2 10.00 Fair -- 51.0 44.1 77% 48 NA 29.91 1012.5
2:54 am CDT W 8.1 10.00 Fair -- 53.0 44.1 72% 50 NA 29.91 1012.6
1:54 am CDT W 10.4 10.00 Fair -- 55.0 44.1 67% 52 NA 29.91 1012.8
12:54 am CDT W 10.4 10.00 A Few Clouds -- 57.0 46.0 67% 55 NA 29.93 1013.1
11:54 pm CDT W 12.7 G 21.9 10.00 Mostly Cloudy -- 61.0 46.9 60% 59 NA 29.92 1013.0
10:54 pm CDT W 16.1 G 31.1 10.00 Mostly Cloudy -- 66.0 57.0 73% NA NA 29.92 1012.8
9:54 pm CDT SW 11.5 10.00 Mostly Cloudy -- 68.0 61.0 78% NA NA 29.91 1012.5
8:54 pm CDT SW 10.4 10.00 Overcast Trace 68.0 61.0 78% NA NA 29.90 1012.3
7:54 pm CDT W 13.8 G 20.7 10.00 Overcast -- 71.0 59.0 66% NA NA 29.91 1012.6
6:54 pm CDT SW 12.7 10.00 Overcast -- 72.0 59.0 64% NA NA 29.91 1012.7
5:54 pm CDT SW 13.8 10.00 Partly Cloudy -- 72.0 59.0 64% NA NA 29.91 1012.5
4:54 pm CDT SW 12.7 G 19.6 10.00 Overcast -- 75.0 59.0 58% NA NA 29.91 1012.5
3:54 pm CDT S 19.6 G 31.1 10.00 Fair -- 76.0 57.0 52% NA NA 29.91 1012.8
2:54 pm CDT S 10.4 10.00 A Few Clouds -- 76.0 57.0 52% NA NA 29.93 1013.2
1:54 pm CDT S 17.3 G 24.2 10.00 Fair -- 74.0 55.0 52% NA NA 29.96 1014.2
12:54 pm CDT S 13.8 10.00 A Few Clouds -- 70.0 53.1 55% NA NA 29.99 1015.5
11:54 am CDT S 8.1 10.00 Fair -- 66.0 52.0 61% NA NA 30.04 1016.9

Regional Weather Observation


Galesburg Municipal Airport, IL (KGBG)

Overcast
46.0 F

Marshall County Airport, IL (KC75)

Overcast
49.0 F

Macomb Municipal Airport, IL (KMQB)

Overcast
48.0 F

Logan County Airport, IL (KAAA)

Overcast
51.0 F

Illinois Valley Regional Airport, IL (KVYS)

Overcast
49.0 F

Moline Quad-City Airport, IL (KMLI)

Overcast
50.0 F

Advertise Here


Advertise Here